Date String (YYYY-MM-DD hh:mm:ss) UTC,Instrument flags,Ambient pressure (hPa),Sample flow (lpm),Bypass flow (lpm),Sample temperature (°C),Ambient temperature (°C),ASC tube jacket temperature (°C),LED temperature (°C),Box temperature (°C),Sample RH (%),Span deviation,Mass concentration (μg/m³),Mass concentration (μg/m³),Mass concentration (μg/m³)
DateTimeUTC,F1_M11,P_M11,Q1_M11,Q2_M11,T1_M11,T2_M11,T3_M11,T4_M11,T5_M11,U1_M11,ZSPAN_M11,X0_M11,X2_M11,X1_M11
2022-11-28 03:00:00,,0815.1,4.99,0.00,21.4,20.0,00.0,30.3,23.2,09.2,0000.0,0001.05,0000.72,0000.58
2022-11-28 03:01:00,,0815.2,4.99,0.00,21.4,20.0,00.0,30.3,23.2,09.2,0000.0,0001.72,0000.72,0000.59
2022-11-28 03:02:00,,0814.9,5.01,0.00,21.4,20.0,00.0,30.3,23.2,09.1,0000.0,0001.68,0000.71,0000.58
2022-11-28 03:03:00,,0814.9,5.01,0.00,21.4,20.1,00.0,30.3,23.2,09.0,0000.0,0001.69,0000.72,0000.59
2022-11-28 03:04:00,,0814.9,5.00,0.00,21.4,20.1,00.0,30.3,23.2,09.0,0000.0,0001.71,0000.73,0000.58
2022-11-28 03:05:00,,0815.0,5.00,0.00,21.4,20.1,00.0,30.3,23.3,09.0,0000.0,0001.72,0000.73,0000.58
2022-11-28 03:06:00,,0815.0,5.00,0.00,21.4,20.1,00.0,30.3,23.3,09.0,0000.0,0001.74,0000.74,0000.58
2022-11-28 03:07:00,,0815.0,5.00,0.00,21.4,20.1,00.0,30.3,23.3,09.0,0000.0,0001.70,0000.72,0000.58
2022-11-28 03:08:00,,0815.2,4.99,0.00,21.4,20.1,00.0,30.3,23.3,08.9,0000.0,0001.70,0000.71,0000.57
2022-11-28 03:09:00,,0815.4,4.99,0.00,21.4,20.1,00.0,30.3,23.3,09.2,0000.0,0001.62,0000.67,0000.57
2022-11-28 03:10:00,,0815.4,5.00,0.00,21.4,20.1,00.0,30.3,23.3,09.0,0000.0,0001.58,0000.65,0000.56
2022-11-28 03:11:00,,0815.4,5.00,0.00,21.4,20.2,00.0,30.3,23.3,08.9,0000.0,0001.54,0000.64,0000.55
2022-11-28 03:12:00,,0815.5,5.01,0.00,21.5,20.5,00.0,30.3,23.3,08.9,0000.0,0000.85,0000.64,0000.54
2022-11-28 03:13:00,,0816.0,5.01,0.00,21.6,21.4,00.0,30.3,23.6,08.8,0000.0,0000.86,0000.65,0000.54
2022-11-28 03:14:00,,0816.0,5.00,0.00,21.7,21.9,00.0,30.3,23.8,08.9,0000.0,0000.83,0000.63,0000.54
2022-11-28 03:15:00,,0815.8,4.99,0.00,21.7,21.7,00.0,30.4,23.8,09.2,0000.0,0000.83,0000.63,0000.54
2022-11-28 03:16:00,,0816.1,4.99,0.00,21.7,21.4,00.0,30.5,23.7,09.0,0000.0,0000.93,0000.63,0000.54
2022-11-28 03:17:00,,0816.1,5.01,0.00,21.7,21.2,00.0,30.5,23.7,09.0,0000.0,0000.95,0000.64,0000.55
2022-11-28 03:18:00,,0816.0,5.01,0.00,21.7,21.0,00.0,30.5,23.7,09.0,0000.0,0001.03,0000.66,0000.55
2022-11-28 03:19:00,,0816.1,4.99,0.00,21.7,20.8,00.0,30.6,23.7,09.0,0000.0,0001.05,0000.67,0000.54
2022-11-28 03:20:00,,0816.1,4.99,0.00,21.7,20.7,00.0,30.6,23.7,08.9,0000.0,0001.11,0000.70,0000.55
2022-11-28 03:21:00,,0816.1,5.00,0.00,21.7,20.6,00.0,30.6,23.7,08.9,0000.0,0001.13,0000.71,0000.55
2022-11-28 03:22:00,,0815.5,5.00,0.00,21.7,20.5,00.0,30.6,23.6,08.9,0000.0,0001.11,0000.70,0000.55
2022-11-28 03:23:00,,0815.4,5.01,0.00,21.7,20.5,00.0,30.6,23.6,08.9,0000.0,0001.09,0000.69,0000.55
2022-11-28 03:24:00,,0815.4,5.00,0.00,21.7,20.4,00.0,30.6,23.6,08.9,0000.0,0001.07,0000.68,0000.55
2022-11-28 03:25:00,,0815.5,5.00,0.00,21.7,20.5,00.0,30.6,23.6,09.0,0000.0,0001.05,0000.67,0000.55
2022-11-28 03:26:00,,0815.4,5.00,0.00,21.7,20.5,00.0,30.6,23.6,09.1,0000.0,0001.02,0000.66,0000.55
2022-11-28 03:27:00,,0815.4,4.99,0.00,21.7,20.5,00.0,30.6,23.6,09.1,0000.0,0000.91,0000.65,0000.55
2022-11-28 03:28:00,,0815.3,5.00,0.00,21.7,20.5,00.0,30.6,23.5,09.0,0000.0,0000.87,0000.64,0000.55
2022-11-28 03:29:00,,0815.4,5.00,0.00,21.7,20.4,00.0,30.6,23.5,09.0,0000.0,0000.89,0000.63,0000.55
2022-11-28 03:30:00,,0815.2,5.00,0.00,21.7,20.4,00.0,30.6,23.5,09.0,0000.0,0000.91,0000.64,0000.56
2022-11-28 03:31:00,,0815.3,5.00,0.00,21.7,20.3,00.0,30.6,23.5,09.0,0000.0,0000.88,0000.62,0000.56
2022-11-28 03:32:00,,0815.2,5.00,0.00,21.7,20.3,00.0,30.6,23.5,09.0,0000.0,0000.88,0000.62,0000.57
2022-11-28 03:33:00,,0815.1,5.00,0.00,21.7,20.3,00.0,30.6,23.4,09.1,0000.0,0000.90,0000.63,0000.58
2022-11-28 03:34:00,,0815.1,5.00,0.00,21.6,20.2,00.0,30.6,23.4,09.2,0000.0,0000.95,0000.65,0000.58
2022-11-28 03:35:00,,0815.1,5.00,0.00,21.6,20.2,00.0,30.6,23.3,09.4,0000.0,0000.98,0000.67,0000.59
2022-11-28 03:36:00,,0815.2,4.99,0.00,21.6,20.1,00.0,30.6,23.3,09.4,0000.0,0000.99,0000.67,0000.59
2022-11-28 03:37:00,,0815.1,5.00,0.00,21.6,20.1,00.0,30.6,23.3,09.5,0000.0,0001.04,0000.70,0000.59
2022-11-28 03:38:00,,0815.0,5.02,0.00,21.6,20.1,00.0,30.5,23.3,09.5,0000.0,0001.19,0000.73,0000.60
2022-11-28 03:39:00,,0815.1,5.00,0.00,21.6,20.1,00.0,30.5,23.4,09.5,0000.0,0002.45,0000.75,0000.60
2022-11-28 03:40:00,,0814.9,4.99,0.00,21.6,20.1,00.0,30.5,23.4,09.5,0000.0,0002.41,0000.76,0000.61
2022-11-28 03:41:00,,0815.5,5.01,0.00,21.6,20.6,00.0,30.5,23.5,09.7,0000.0,0002.53,0000.79,0000.62
2022-11-28 03:42:00,,0815.1,5.01,0.00,21.7,21.6,00.0,30.5,23.7,09.6,0000.0,0002.54,0000.80,0000.63
2022-11-28 03:43:00,,0815.2,4.99,0.00,21.8,21.9,00.0,30.5,23.9,09.5,0000.0,0002.58,0000.81,0000.64
2022-11-28 03:44:00,,0815.3,4.98,0.00,21.8,21.5,00.0,30.6,23.8,09.4,0000.0,0002.65,0000.84,0000.64
2022-11-28 03:45:00,,0815.3,5.00,0.00,21.8,21.3,00.0,30.6,23.8,09.3,0000.0,0002.63,0000.83,0000.64
2022-11-28 03:46:00,,0815.3,4.99,0.00,21.8,21.1,00.0,30.6,23.7,09.4,0000.0,0002.61,0000.82,0000.63
2022-11-28 03:47:00,,0815.4,5.00,0.00,21.8,21.0,00.0,30.6,23.7,09.3,0000.0,0002.60,0000.81,0000.63
2022-11-28 03:48:00,,0815.3,5.01,0.00,21.8,20.9,00.0,30.7,23.8,09.2,0000.0,0002.58,0000.79,0000.63
2022-11-28 03:49:00,,0815.3,5.01,0.00,21.8,20.8,00.0,30.7,23.8,09.2,0000.0,0002.48,0000.79,0000.63
2022-11-28 03:50:00,,0815.4,5.00,0.00,21.8,20.7,00.0,30.7,23.8,09.2,0000.0,0001.26,0000.77,0000.63
2022-11-28 03:51:00,,0815.3,4.99,0.00,21.8,20.7,00.0,30.7,23.7,09.3,0000.0,0001.24,0000.76,0000.62
2022-11-28 03:52:00,,0815.0,4.99,0.00,21.8,20.6,00.0,30.7,23.7,09.2,0000.0,0001.14,0000.76,0000.62
2022-11-28 03:53:00,,0815.0,5.01,0.00,21.8,20.5,00.0,30.7,23.7,09.2,0000.0,0001.20,0000.76,0000.60
2022-11-28 03:54:00,,0815.3,5.00,0.00,21.8,20.5,00.0,30.7,23.7,09.2,0000.0,0001.60,0000.78,0000.60
2022-11-28 03:55:00,,0815.0,5.01,0.00,21.8,20.5,00.0,30.7,23.7,09.2,0000.0,0001.57,0000.76,0000.61
2022-11-28 03:56:00,,0815.0,5.00,0.00,21.8,20.5,00.0,30.7,23.7,09.2,0000.0,0001.59,0000.78,0000.61
2022-11-28 03:57:00,,0815.1,4.99,0.00,21.8,20.5,00.0,30.7,23.7,09.2,0000.0,0001.62,0000.78,0000.61
2022-11-28 03:58:00,,0815.3,4.99,0.00,21.8,20.5,00.0,30.7,23.7,09.3,0000.0,0001.92,0000.79,0000.62
2022-11-28 03:59:00,,0815.0,5.00,0.00,21.8,20.5,00.0,30.7,23.7,09.4,0000.0,0001.94,0000.81,0000.63
